Regional Weather Roundup
Issued by NWS

Home | Current Version | Previous Version | Graphics & Text | Print | Product List | Glossary On
Versions: 1 2 3 4 5 6 7 8 9 10 11 12 13 14 15 16 17 18 19 20 21 22 23 24 25 26 27 28 29 30 31 32 33 34 35 36 37 38 39 40 41 42 43 44 45 46 47 48 49 50
000
ASUS45 KTFX 191719
RWRMT
MONTANA HOURLY WEATHER ROUNDUP
NATIONAL WEATHER SERVICE GREAT FALLS MT
1119 AM MDT SAT APR 19 2014

NOTE: "FAIR" INDICATES FEW OR NO CLOUDS BELOW 12000 FEET WITH NO
SIGNIFICANT WEATHER AND/OR OBSTRUCTIONS TO VISIBILITY.

* THESE STATIONS ARE NOT UNDER NWS QUALITY CONTROL. THEY DO NOT
   REPORT WEATHER SUCH AS PRECIPITATION OR FOG.

MTZ001>007-043-191800-
WEST OF THE DIVIDE
CITY           SKY/WX    TMP DP  RH WIND       PRES   REMARKS
KALISPELL      SUNNY     45  25  45 VRB3      29.96F
MISSOULA       SUNNY     43  25  49 CALM      29.99F
BUTTE          SUNNY     46   9  22 SE7       29.98S
MULLAN PASS    SUNNY     34  23  64 VRB3      29.90S
* ESSEX        N/A       43  33  68 N2         N/A
* LINCOLN      N/A       44  16  32 W5G10      N/A
* LOOKOUT PASS N/A       40  26  57 S6         N/A   WCI  36
* PLAINS APT   SUNNY     46  27  48 CALM      29.96F
* POLSON       N/A       48  23  37 SE3        N/A
* SEELEY LAKE  N/A       43  22  43 N/A        N/A
* THOMP F APT  SUNNY     45  15  30 SE6G13     N/A
$$

MTZ008-052>055-191800-
SOUTHWEST MONTANA
CITY           SKY/WX    TMP DP  RH WIND       PRES   REMARKS
BOZEMAN        SUNNY     50  14  24 NW5       29.99S
DILLON         SUNNY     50  10  20 S9        29.98F
W YELLOWSTONE  N/A       46  21  37 SW5G11     N/A
* THREE FORKS  SUNNY     48  16  28 N/A        N/A
* BOULDER HILL N/A       42  12  29 S11        N/A
* MONIDA PASS  N/A       43  12  28 SE13       N/A
* RAYNOLDS PAS N/A       35  19  52 S13G18     N/A   WCI  26
* WHITEHALL    N/A       50  17  27 NE2G7      N/A
* WISE RIVER   N/A       37  19  48 NW3        N/A
$$

MTZ009>010-012-014-046-048-049-054-191800-
EAST SLOPES AND CENTRAL MONTANA
CITY           SKY/WX    TMP DP  RH WIND       PRES   REMARKS
CUT BANK       SUNNY     50  12  22 W12       29.88F
GREAT FALLS    SUNNY     54  16  22 SW13G21   29.92S
HELENA         SUNNY     48  18  30 CALM      29.96F
MALMSTROM AFB  SUNNY     52  10  18 SW15      29.90S
* CONRAD       SUNNY     50  21  32 E5         N/A
* DEARBORN     N/A       51  11  20 S16G28     N/A
* EAST GLACIER N/A       42  15  33 W16G22     N/A
* MONARCH      N/A       45   4  18 W9         N/A
* PENDROY      N/A       50  14  24 W1G6       N/A
* ROGERS PASS  N/A       41  10  28 SE12G20    N/A
* SAINT MARY   N/A       42  20  41 S10G22     N/A
* SWEET GRASS  N/A       47  21  36 W9G15      N/A
* WHITE SULPH  N/A       48   9  20 SW14G21    N/A
$$

MTZ011-013-016-021-035-040-045-047-050-051-191800-
NORTH CENTRAL MONTANA
CITY           SKY/WX    TMP DP  RH WIND       PRES   REMARKS
HAVRE          SUNNY     52  28  40 SW15G24   29.92F
LEWISTOWN      SUNNY     48   5  17 NW7       29.94F
* CHINOOK      SUNNY     50  30  46 W14       29.93F
* FORT BENTON  SUNNY     52  12  20 W8        29.94F
* MALTA APT    SUNNY     48  30  50 W12G20    29.91S
* CHESTER      N/A       46  25  44 W6G11      N/A
* DENTON       N/A       53  14  21 W14G19     N/A
* JUDITH GAP   N/A       49   9  20 SW13G20    N/A
* LOMA         N/A       50  17  27 SW4G12     N/A
$$

MTZ017>020-022>027-061-062-191800-
NORTHEAST MONTANA
CITY           SKY/WX    TMP DP  RH WIND       PRES   REMARKS
GLASGOW        PTSUNNY   46  36  68 W14       29.94R
GLENDIVE       PTSUNNY   54  34  47 W18G25    29.98R
JORDAN         SUNNY     54  27  35 W15G24    29.95R
SIDNEY         PTSUNNY   48  36  63 W14G20    29.95R
WOLF POINT     SUNNY     50  36  59 W16G25    29.93S
* BEAVER HILL  N/A       48  32  54 W19G25     N/A
* CIRCLE       N/A       48  38  68 W1G13      N/A
* LINDSAY DVD  N/A       47  33  58 W22G32     N/A
* NAVAJO       N/A       41  34  76 NW19G27    N/A
* SACO         N/A       46  35  66 SW19       N/A
* SCOBEY APT   SUNNY     43  32  65 W14G20    29.88R
$$

MTZ028>042-056>058-191800-
SOUTHCENTRAL AND SOUTHEAST MONTANA
CITY           SKY/WX    TMP DP  RH WIND       PRES   REMARKS
BAKER          SUNNY     52  28  40 NW20G32   29.98R
BILLINGS       SUNNY     52  14  22 CALM      29.98F
LIVINGSTON     SUNNY     52  18  26 NW8       29.97S
MILES CITY     SUNNY     54  28  37 NW14G21   29.99R
* EKALAKA APT  SUNNY     52  21  30 W14G21    29.98R
* LAUREL APT   SUNNY     52  18  26 N/A        N/A
* ROUNDUP APT  SUNNY     54   5  14 W14G20     N/A
* HYSHAM       N/A       53  21  29 SE4        N/A
* LAME DEER    N/A       47  16  29 E2G8       N/A
* REED POINT   N/A       53  22  30 E6G13      N/A
* ROSCOE HILL  N/A       47  12  24 E15G20     N/A
$$

REGIONAL REPORTS...DAKOTAS
CITY           SKY/WX    TMP DP  RH WIND       PRES   REMARKS
WILLISTON      PTSUNNY   48  36  63 NW20      29.90R
DICKINSON      SUNNY     54  30  40 W24G36    29.92R
CROSBY         CLOUDY    41  37  86 W20G26    29.87R
TIOGA          CLOUDY    41  41 100 W24G30    29.89R
WATFORD CITY   CLOUDY    45  36  71 W14G24    29.90R
BISMARCK       SUNNY     59  28  31 W21       29.92R
GRAND FORKS    PTCLDY    61  37  41 W20G26    29.81R
FARGO          PTCLDY    61  36  39 SW14      29.87S
BUFFALO SD     SUNNY     55  21  27 W20G31    29.94S
RAPID CITY     PTCLDY    59  18  20 N10       30.03S
$$

REGIONAL REPORTS...WYOMING/IDAHO/WASHINGTON
CITY           SKY/WX    TMP DP  RH WIND       PRES   REMARKS
GILLETTE       SUNNY     52  18  26 N3        30.05R
SHERIDAN       SUNNY     52  16  24 CALM      30.02S
CODY           PTCLDY    54  27  35 SE10      29.98F
YELLOWSTONE LA SUNNY     41  10  28 VRB3      30.08F
SALMON         SUNNY     45  18  34 CALM      30.02F
MULLAN PASS    SUNNY     34  23  64 VRB3      29.90S
SAND POINT     SUNNY     46  32  58 E3        29.93F
SPOKANE        CLOUDY    48  28  46 NE9       29.87F
$$

REGIONAL REPORTS...ALBERTA
CITY           SKY/WX    TMP DP  RH WIND       PRES   REMARKS
CALGARY        PTCLDY    41  32  70 S8        29.82F
LETHBRIDGE     PTCLDY    50  28  43 W25G35    29.85F
MEDICINE HAT   PTSUNNY   43  36  76 S8        29.91F
EDMONTON       PTCLDY    39  32  76 SW5       29.81S WCI  35
WATERTON GATE  N/A       45  19  35 SW13G21    N/A
CARDSTON       N/A       50  19  29 W6         N/A
MILK RIVER     N/A       50  19  29 W13G20     N/A
$$

REGIONAL REPORTS...SASKATCHEWAN
CITY           SKY/WX    TMP DP  RH WIND       PRES   REMARKS
SWIFT CURRENT  CLOUDY    34  32  92 W14G20    29.88R WCI  24
REGINA         CLOUDY    34  30  85 NW20G28   29.84R WCI  23
VAL MARIE      N/A       45  32  60 W13        N/A
ASSINIBOIA     N/A       37  32  82 W18G24     N/A   WCI  27
CORONACH       N/A       41  34  76 W20G25     N/A

$$




USA.gov is the U.S. government's official web portal to all federal, state and local government web resources and services.